Regional Weather Roundup
Issued by NWS

Home | Current Version | Previous Version | Graphics & Text | Print | Product List | Glossary On
Versions: 1 2 3 4 5 6 7 8 9 10 11 12 13 14 15 16 17 18 19 20 21 22 23 24 25 26 27 28 29 30 31 32 33 34 35 36 37 38 39 40 41 42 43 44 45 46 47 48 49 50
000
ASUS43 KLMK 182302
RWRKY
KENTUCKY REGIONAL WEATHER ROUNDUP
NATIONAL WEATHER SERVICE LOUISVILLE KY
600 PM EST SUN FEB 18 2018

NOTE "FAIR" INDICATES FEW OR NO CLOUDS BELOW 12,000 FEET
WITH NO SIGNIFICANT WEATHER AND/OR OBSTRUCTIONS TO VISIBILITY.

KYZ001>023-026-027-061>063-070>075-190000-
WESTERN AND SOUTH CENTRAL KENTUCKY

CITY           SKY/WX    TMP DP  RH WIND       PRES   REMARKS
PADUCAH        CLOUDY    54  32  43 SE10      30.08F
HENDERSON      FAIR      51  34  52 SE8       30.12F
OWENSBORO      FAIR      51  34  52 S10       30.14F
HOPKINSVILLE   FAIR      55  31  40 SE8       30.13R
BOWLING GREEN  FAIR      54  34  46 E5        30.15F
GLASGOW        NOT AVBL
$$

KYZ024-025-028>034-038-045-046-053-190000-
NORTH CENTRAL KENTUCKY

CITY           SKY/WX    TMP DP  RH WIND       PRES   REMARKS
LOUISVILLE/SDF CLOUDY    51  33  50 SE9       30.17F
LOUISVILLE/LOU FAIR      50  33  52 SE7       30.19S
FORT KNOX      FAIR      49  33  55 E6        30.17S
$$

KYZ035>037-039>044-047>052-055>060-089>105-190000-
NORTHEAST KENTUCKY

CITY           SKY/WX    TMP DP  RH WIND       PRES   REMARKS
LEXINGTON      FAIR      49  31  49 SE7       30.19F
COVINGTON      CLOUDY    45  34  65 SE9       30.19F
FRANKFORT      FAIR      49  30  48 SE7       30.18F
$$

KYZ054-064>069-076>088-106>120-190000-
SOUTHEAST KENTUCKY

CITY           SKY/WX    TMP DP  RH WIND       PRES   REMARKS
JACKSON        FAIR      51  30  44 CALM      30.20F
LONDON         FAIR      55  31  39 SE5       30.19S
SOMERSET       FAIR      54  32  43 CALM      30.20S
MIDDLESBORO    FAIR      55  36  48 CALM      30.22R
MONTICELLO     NOT AVBL
$$




USA.gov is the U.S. government's official web portal to all federal, state and local government web resources and services.